User: anonymous
Location: Oshawa
(43.9000°N, 78.8670°W)
Time: 03:19:25
(UTC-04:00)
Language:

Cosmos 1821 Rocket - Orbit

View from above orbital plane
View from above orbital plane
View from above satellite
View from above satellite

Ground track
Ground track

The orbit data is extracted from the following two-line orbital elements,

1 17526U 87017B   14202.13520644  .00000041  00000-0  26343-4 0  1100
2 17526 082.9046 113.7881 0041319 047.8137 061.4941 13.76689825360211
Epoch (UTC): 21 July 2014 03:14:41
Eccentricity: 0.0041319
inclination: 82.9046°
perigee height: 945 km
apogee height: 1006 km
right ascension of ascending node: 113.7881°
argument of perigee: 47.8137°
revolutions per day: 13.76689825
mean anomaly at epoch: 61.4941°
orbit number at epoch: 36021

The dashed part of the orbit path shows where the satellite is in the earth's shadow,  

DLR